Hourly Weather Dziadowizna

Today, 6 May, Thursday

Time Temperature Precipitation Wind Pressure Humidity
00:00 +5°C° 0 mm 5 mps 733 mmHg 85%
01:00 +3°C° 0 mm 5 mps 734 mmHg 85%
02:00 +3°C° 0 mm 5 mps 734 mmHg 86%
03:00 +3°C° 0 mm 4 mps 735 mmHg 87%
04:00 +3°C° 0 mm 4 mps 735 mmHg 88%
05:00 +4°C° 0 mm 4 mps 736 mmHg 81%
06:00 +5°C° 0 mm 4 mps 736 mmHg 75%
07:00 +6°C° 0 mm 5 mps 737 mmHg 69%
08:00 +7°C° 0 mm 5 mps 737 mmHg 62%
09:00 +8°C° 0 mm 5 mps 737 mmHg 55%
10:00 +10°C° 0 mm 5 mps 737 mmHg 48%
11:00 +10°C° 0 mm 5 mps 736 mmHg 48%
12:00 +10°C° 0 mm 6 mps 736 mmHg 48%
13:00 +11°C° 0 mm 6 mps 736 mmHg 49%
14:00 +11°C° 0 mm 6 mps 735 mmHg 54%
15:00 +10°C° 0 mm 6 mps 735 mmHg 58%
16:00 +10°C° 0 mm 6 mps 734 mmHg 63%
17:00 +10°C° 0 mm 5 mps 734 mmHg 66%
18:00 +9°C° 0 mm 5 mps 734 mmHg 69%
19:00 +8°C° 0 mm 4 mps 734 mmHg 72%
20:00 +8°C° 0 mm 4 mps 734 mmHg 72%
21:00 +9°C° 0 mm 3 mps 734 mmHg 73%
22:00 +8°C° 0 mm 3 mps 734 mmHg 73%
23:00 +8°C° 0 mm 3 mps 734 mmHg 74%

Tomorrow, 7 May, Friday

Time Temperature Precipitation Wind Pressure Humidity
00:00 +8°C° 0 mm 3 mps 733 mmHg 75%
01:00 +8°C° 0 mm 3 mps 733 mmHg 75%
02:00 +9°C° 0 mm 3 mps 733 mmHg 76%
03:00 +8°C° 0 mm 4 mps 733 mmHg 76%
04:00 +8°C° 0 mm 4 mps 733 mmHg 77%
05:00 +10°C° 0.1 mm 4 mps 733 mmHg 77%
06:00 +10°C° 0.1 mm 4 mps 733 mmHg 77%
07:00 +10°C° 0.1 mm 5 mps 734 mmHg 78%
08:00 +9°C° 0.4 mm 5 mps 734 mmHg 80%
09:00 +9°C° 0.4 mm 5 mps 734 mmHg 83%
10:00 +9°C° 0.4 mm 6 mps 735 mmHg 85%
11:00 +9°C° 0.3 mm 5 mps 735 mmHg 85%
12:00 +9°C° 0.3 mm 5 mps 736 mmHg 84%
13:00 +8°C° 0.3 mm 5 mps 736 mmHg 84%
14:00 +8°C° 0.1 mm 4 mps 737 mmHg 84%
15:00 +8°C° 0.1 mm 3 mps 738 mmHg 83%
16:00 +8°C° 0.1 mm 2 mps 738 mmHg 83%
17:00 +7°C° 0 mm 2 mps 738 mmHg 85%
18:00 +7°C° 0 mm 2 mps 739 mmHg 86%
19:00 +8°C° 0 mm 1 mps 739 mmHg 88%
20:00 +6°C° 0 mm 2 mps 739 mmHg 89%
21:00 +6°C° 0 mm 2 mps 739 mmHg 90%
22:00 +5°C° 0 mm 2 mps 739 mmHg 92%
23:00 +5°C° 0 mm 2 mps 739 mmHg 91%

Day after tomorrow, 8 May, Saturday

Time Temperature Precipitation Wind Pressure Humidity
00:00 +5°C° 0 mm 2 mps 739 mmHg 91%
01:00 +5°C° 0 mm 2 mps 739 mmHg 91%
02:00 +5°C° 0 mm 2 mps 739 mmHg 89%
03:00 +5°C° 0 mm 2 mps 738 mmHg 88%
04:00 +6°C° 0 mm 2 mps 738 mmHg 87%
05:00 +6°C° 0 mm 2 mps 737 mmHg 85%
06:00 +7°C° 0 mm 2 mps 737 mmHg 84%
07:00 +8°C° 0 mm 2 mps 737 mmHg 82%
08:00 +10°C° 0 mm 2 mps 737 mmHg 78%
09:00 +11°C° 0 mm 3 mps 736 mmHg 73%
10:00 +13°C° 0 mm 3 mps 736 mmHg 69%
11:00 +15°C° 0 mm 4 mps 735 mmHg 65%
12:00 +17°C° 0 mm 5 mps 735 mmHg 61%
13:00 +20°C° 0 mm 6 mps 735 mmHg 58%
14:00 +20°C° 0 mm 6 mps 735 mmHg 59%
15:00 +20°C° 0 mm 5 mps 734 mmHg 60%
16:00 +20°C° 0 mm 5 mps 734 mmHg 61%
17:00 +19°C° 0 mm 4 mps 734 mmHg 68%
18:00 +17°C° 0 mm 3 mps 733 mmHg 75%
19:00 +15°C° 0 mm 2 mps 733 mmHg 81%
20:00 +15°C° 0 mm 2 mps 733 mmHg 84%
21:00 +14°C° 0 mm 2 mps 732 mmHg 86%
22:00 +12°C° 0 mm 3 mps 732 mmHg 88%
23:00 +13°C° 0 mm 3 mps 731 mmHg 86%

9 May, Sunday

Time Temperature Precipitation Wind Pressure Humidity
00:00 +13°C° 0 mm 3 mps 731 mmHg 85%
01:00 +13°C° 0 mm 3 mps 730 mmHg 83%

10 May, Monday

Time Temperature Precipitation Wind Pressure Humidity

11 May, Tuesday

Time Temperature Precipitation Wind Pressure Humidity
Show more